Météo par heure à Malanje

Ce jour, 1 Octobre, Jeudi

Heure Température Précipitation Vent Pression Humidité
00:00 +22°C° 0.2 mm 1 m/s 664 mmHg 85%
01:00 +21°C° 0 mm 1 m/s 664 mmHg 87%
02:00 +21°C° 0.6 mm 1 m/s 664 mmHg 89%
03:00 +20°C° 0.6 mm 1 m/s 664 mmHg 92%
04:00 +20°C° 0.6 mm 1 m/s 663 mmHg 94%
05:00 +21°C° 0.5 mm 1 m/s 664 mmHg 92%
06:00 +19°C° 0.5 mm 0 m/s 665 mmHg 89%
07:00 +20°C° 0 mm 0 m/s 665 mmHg 87%
08:00 +23°C° 0 mm 0 m/s 666 mmHg 76%
09:00 +25°C° 0 mm 0 m/s 666 mmHg 65%
10:00 +30°C° 0 mm 1 m/s 667 mmHg 54%
11:00 +32°C° 0 mm 1 m/s 666 mmHg 48%
12:00 +33°C° 0 mm 1 m/s 666 mmHg 42%
13:00 +34°C° 0 mm 1 m/s 665 mmHg 36%
14:00 +33°C° 0 mm 1 m/s 664 mmHg 40%
15:00 +32°C° 0 mm 2 m/s 663 mmHg 43%
16:00 +30°C° 0 mm 2 m/s 662 mmHg 47%
17:00 +29°C° 0 mm 2 m/s 663 mmHg 52%
18:00 +28°C° 0 mm 2 m/s 663 mmHg 57%
19:00 +26°C° 0 mm 2 m/s 663 mmHg 62%
20:00 +25°C° 0.2 mm 2 m/s 664 mmHg 68%
21:00 +24°C° 0.2 mm 3 m/s 664 mmHg 74%
22:00 +22°C° 0.2 mm 3 m/s 665 mmHg 80%
23:00 +21°C° 0 mm 3 m/s 664 mmHg 82%

Demain, 2 Octobre, Vendredi

Heure Température Précipitation Vent Pression Humidité
00:00 +20°C° 0 mm 3 m/s 664 mmHg 85%
01:00 +20°C° 0 mm 3 m/s 664 mmHg 88%
02:00 +20°C° 0 mm 3 m/s 664 mmHg 88%
03:00 +19°C° 0 mm 2 m/s 663 mmHg 88%
04:00 +19°C° 0 mm 2 m/s 663 mmHg 89%
05:00 +19°C° 0 mm 2 m/s 664 mmHg 88%
06:00 +20°C° 0 mm 2 m/s 664 mmHg 87%
07:00 +20°C° 0 mm 2 m/s 665 mmHg 87%
08:00 +24°C° 0 mm 2 m/s 666 mmHg 75%
09:00 +27°C° 0 mm 1 m/s 666 mmHg 63%
10:00 +30°C° 0 mm 1 m/s 667 mmHg 52%
11:00 +32°C° 0 mm 1 m/s 667 mmHg 46%
12:00 +34°C° 0 mm 1 m/s 666 mmHg 40%
13:00 +35°C° 0 mm 0 m/s 666 mmHg 34%
14:00 +33°C° 0 mm 0 m/s 665 mmHg 36%
15:00 +33°C° 0 mm 1 m/s 664 mmHg 38%
16:00 +32°C° 0 mm 1 m/s 663 mmHg 41%
17:00 +30°C° 0 mm 1 m/s 663 mmHg 45%
18:00 +29°C° 0 mm 1 m/s 664 mmHg 49%
19:00 +28°C° 0 mm 1 m/s 664 mmHg 53%
20:00 +27°C° 0.2 mm 1 m/s 664 mmHg 60%
21:00 +25°C° 0.2 mm 1 m/s 664 mmHg 66%
22:00 +24°C° 0.2 mm 2 m/s 664 mmHg 72%
23:00 +23°C° 0.3 mm 2 m/s 664 mmHg 76%

Après-demain, 3 Octobre, Samedi

Heure Température Précipitation Vent Pression Humidité
00:00 +23°C° 0.3 mm 2 m/s 664 mmHg 80%
01:00 +21°C° 0.3 mm 2 m/s 664 mmHg 84%
02:00 +20°C° 0.8 mm 2 m/s 664 mmHg 87%
03:00 +20°C° 0.8 mm 2 m/s 664 mmHg 90%
04:00 +19°C° 0.8 mm 2 m/s 664 mmHg 93%
05:00 +20°C° 0.1 mm 2 m/s 664 mmHg 92%
06:00 +20°C° 0.1 mm 2 m/s 665 mmHg 91%
07:00 +20°C° 0.1 mm 2 m/s 665 mmHg 90%
08:00 +23°C° 0 mm 2 m/s 666 mmHg 79%
09:00 +26°C° 0 mm 2 m/s 666 mmHg 69%
10:00 +28°C° 0 mm 2 m/s 667 mmHg 58%
11:00 +31°C° 0 mm 1 m/s 666 mmHg 51%
12:00 +33°C° 0 mm 1 m/s 666 mmHg 44%
13:00 +35°C° 0 mm 1 m/s 666 mmHg 37%
14:00 +34°C° 0 mm 1 m/s 665 mmHg 38%
15:00 +33°C° 0 mm 1 m/s 664 mmHg 38%
16:00 +32°C° 0 mm 1 m/s 664 mmHg 39%
17:00 +30°C° 0 mm 1 m/s 664 mmHg 45%
18:00 +29°C° 0 mm 1 m/s 664 mmHg 51%
19:00 +27°C° 0 mm 1 m/s 664 mmHg 56%
20:00 +25°C° 0.4 mm 2 m/s 664 mmHg 63%
21:00 +24°C° 0.4 mm 2 m/s 665 mmHg 70%
22:00 +23°C° 0.4 mm 2 m/s 665 mmHg 77%
23:00 +21°C° 0.5 mm 2 m/s 665 mmHg 80%

4 Octobre, Dimanche

Heure Température Précipitation Vent Pression Humidité
00:00 +21°C° 0.5 mm 2 m/s 665 mmHg 82%
01:00 +20°C° 0.5 mm 2 m/s 665 mmHg 85%
02:00 +20°C° 0.4 mm 2 m/s 665 mmHg 87%
03:00 +20°C° 0.4 mm 2 m/s 664 mmHg 90%
04:00 +19°C° 0.4 mm 2 m/s 664 mmHg 92%
05:00 +19°C° 0.2 mm 2 m/s 665 mmHg 91%
06:00 +19°C° 0.2 mm 2 m/s 665 mmHg 91%
07:00 +19°C° 0.2 mm 2 m/s 665 mmHg 90%
08:00 +23°C° 0 mm 2 m/s 666 mmHg 80%
09:00 +25°C° 0 mm 2 m/s 666 mmHg 71%
10:00 +28°C° 0 mm 1 m/s 667 mmHg 61%
11:00 +30°C° 0 mm 1 m/s 667 mmHg 54%
12:00 +31°C° 0 mm 1 m/s 666 mmHg 48%
13:00 +33°C° 0 mm 1 m/s 666 mmHg 41%
14:00 +32°C° 0.1 mm 1 m/s 665 mmHg 44%
15:00 +30°C° 0.1 mm 1 m/s 665 mmHg 48%
16:00 +29°C° 0.1 mm 1 m/s 664 mmHg 52%
17:00 +28°C° 0.1 mm 1 m/s 664 mmHg 57%
18:00 +26°C° 0.1 mm 1 m/s 664 mmHg 63%
19:00 +24°C° 0.1 mm 1 m/s 665 mmHg 68%
20:00 +24°C° 0.3 mm 1 m/s 665 mmHg 73%
21:00 +23°C° 0.3 mm 1 m/s 665 mmHg 78%
22:00 +22°C° 0.3 mm 1 m/s 666 mmHg 84%
23:00 +22°C° 0 mm 1 m/s 665 mmHg 84%

5 Octobre, Lundi

Heure Température Précipitation Vent Pression Humidité
00:00 +22°C° 0 mm 1 m/s 665 mmHg 85%
01:00 +22°C° 0 mm 1 m/s 665 mmHg 85%
02:00 +21°C° 0 mm 1 m/s 664 mmHg 86%
03:00 +21°C° 0 mm 1 m/s 664 mmHg 87%
04:00 +20°C° 0 mm 1 m/s 664 mmHg 88%
05:00 +21°C° 0 mm 1 m/s 664 mmHg 86%
06:00 +21°C° 0 mm 1 m/s 665 mmHg 85%
07:00 +22°C° 0 mm 1 m/s 665 mmHg 83%
08:00 +25°C° 0 mm 2 m/s 666 mmHg 70%
09:00 +28°C° 0 mm 2 m/s 667 mmHg 58%
10:00 +31°C° 0 mm 2 m/s 667 mmHg 46%
11:00 +33°C° 0 mm 1 m/s 667 mmHg 41%
12:00 +35°C° 0 mm 1 m/s 666 mmHg 36%
13:00 +36°C° 0 mm 1 m/s 666 mmHg 32%
14:00 +36°C° 0 mm 1 m/s 665 mmHg 32%
15:00 +35°C° 0 mm 1 m/s 665 mmHg 32%
16:00 +34°C° 0 mm 1 m/s 664 mmHg 32%
17:00 +32°C° 0.1 mm 1 m/s 664 mmHg 39%
18:00 +30°C° 0.1 mm 1 m/s 665 mmHg 46%
19:00 +28°C° 0.1 mm 2 m/s 665 mmHg 53%
20:00 +26°C° 5.1 mm 2 m/s 665 mmHg 65%
21:00 +24°C° 5.1 mm 3 m/s 665 mmHg 77%
22:00 +21°C° 5.1 mm 3 m/s 666 mmHg 89%
23:00 +21°C° 0 mm 3 m/s 665 mmHg 89%

6 Octobre, Mardi

Heure Température Précipitation Vent Pression Humidité
00:00 +21°C° 0 mm 2 m/s 665 mmHg 89%
01:00 +21°C° 0 mm 1 m/s 665 mmHg 88%
02:00 +20°C° 0 mm 2 m/s 664 mmHg 90%
03:00 +19°C° 0 mm 2 m/s 664 mmHg 91%
04:00 +19°C° 0 mm 2 m/s 664 mmHg 93%
05:00 +19°C° 0 mm 2 m/s 664 mmHg 91%
06:00 +19°C° 0 mm 2 m/s 665 mmHg 89%
07:00 +19°C° 0 mm 2 m/s 665 mmHg 87%
08:00 +23°C° 0 mm 2 m/s 666 mmHg 76%
09:00 +26°C° 0 mm 2 m/s 666 mmHg 65%
10:00 +28°C° 0 mm 2 m/s 667 mmHg 54%
11:00 +30°C° 0 mm 2 m/s 666 mmHg 49%
12:00 +32°C° 0 mm 2 m/s 666 mmHg 44%
13:00 +34°C° 0 mm 1 m/s 665 mmHg 39%
14:00 +33°C° 0 mm 1 m/s 665 mmHg 38%
15:00 +33°C° 0 mm 1 m/s 664 mmHg 37%
16:00 +31°C° 0 mm 0 m/s 664 mmHg 37%
17:00 +31°C° 0 mm 1 m/s 664 mmHg 43%
18:00 +29°C° 0 mm 1 m/s 664 mmHg 48%
19:00 +27°C° 0 mm 1 m/s 665 mmHg 54%
20:00 +26°C° 0.2 mm 1 m/s 665 mmHg 58%
21:00 +25°C° 0.2 mm 1 m/s 665 mmHg 62%
22:00 +24°C° 0.2 mm 1 m/s 665 mmHg 66%
23:00 +23°C° 0 mm 1 m/s 665 mmHg 68%
Voir plus

We Need Your Consent

Meteoprog and our Service Providers may store and access personal data such as cookies, device identifiers or other similar technologies on your device and process such data to personalise content and ads, as well as provide social media features and to analyse the traffic.

  • Store and/or access information on your device

    Cookies, device identifiers or other information can be stored or accessed on your device for the purposes indicated above.

  • Personalised ads and content, ad and content measurement, audience insights, and products development

    Ads and content can be personalised based on a profile. More data can be added to better personalise ads and content. Ad and content performance can be measured. Insights about the audience who saw the ads and content can be derived. Such data can be used to develop or improve user’s experience, systems and software.

By clicking ‘I Agree’ you will allow the use of indicated cookies, device identifiers, web beacons or other similar technologies. Your settings can be changed in the browser on your device.

For certain purposes, legitimate interests may be relied on, rather than consent. You can read more about this in our Privacy and Cookie Policy.